This is the latest recevied weather packets stored in our database for station/object N4WFF. If no packets are shown the sender has not sent any weather packets the latest 10 day(s).
| Time | Temp. | Humidity | Pressure | Rain* | Wind** | Luminosity | Snow |
|---|---|---|---|---|---|---|---|
| 1777639556 | 15.56° C | 95% | 1013.9 hPa | 0 mm | - | 51 W/m² | - |
| 1777639255 | 15.56° C | 95% | 1013.8 hPa | 0 mm | - | 66 W/m² | - |
| 1777638956 | 15.56° C | 95% | 1013.7 hPa | 0 mm | - | 50 W/m² | - |
| 1777638656 | 15.56° C | 95% | 1013.5 hPa | 0 mm | - | 35 W/m² | - |
| 1777638356 | 15.56° C | 95% | 1013.4 hPa | 0 mm | - | 37 W/m² | - |
| 1777638055 | 15.56° C | 95% | 1013.4 hPa | 0 mm | - | 58 W/m² | - |
| 1777637755 | 15.56° C | 95% | 1013.5 hPa | 0 mm | - | 63 W/m² | - |
| 1777637457 | 15.56° C | 95% | 1013.4 hPa | 0 mm | - | 69 W/m² | - |
| 1777637155 | 15.56° C | 95% | 1013.4 hPa | 0 mm | - | 42 W/m² | - |
| 1777636855 | 15.56° C | 95% | 1013.5 hPa | 0 mm | - | 63 W/m² | - |
| 1777636555 | 15.56° C | 95% | 1013.5 hPa | 0 mm | - | 49 W/m² | - |
| 1777636257 | 15.56° C | 95% | 1013.4 hPa | 0 mm | - | 31 W/m² | - |
| 1777635956 | 15.56° C | 95% | 1013.2 hPa | 0 mm | - | 19 W/m² | - |
| 1777635656 | 15.56° C | 95% | 1013.2 hPa | 0 mm | - | 6 W/m² | - |
| 1777635356 | 15.56° C | 95% | 1013 hPa | 0 mm | - | 13 W/m² | - |
| 1777635056 | 15.56° C | 95% | 1012.7 hPa | 0 mm | - | 17 W/m² | - |
| 1777634756 | 15.56° C | 95% | 1012.6 hPa | 0 mm | - | 10 W/m² | - |
| 1777634455 | 15.56° C | 95% | 1012.7 hPa | 0 mm | - | 7 W/m² | - |
| 1777634156 | 15.56° C | 95% | 1012.9 hPa | 0 mm | - | 3 W/m² | - |
| 1777633855 | 15.56° C | 95% | 1012.9 hPa | 0 mm | - | 2 W/m² | - |
| 1777633556 | 15.56° C | 95% | 1013 hPa | 0 mm | - | 1 W/m² | - |
| 1777633255 | 15.56° C | 95% | 1013.2 hPa | 0 mm | - | 1 W/m² | - |
| 1777632956 | 15.56° C | 95% | 1013.2 hPa | 0 mm | - | 0 W/m² | - |
| 1777632656 | 15.56° C | 95% | 1013 hPa | 0 mm | - | 0 W/m² | - |
| 1777632355 | 15.56° C | 95% | 1012.9 hPa | 0 mm | - | 0 W/m² | - |
* Rain latest hour (hover to see other rain measurements)
** Current wind speed in m/s (hover to see current wind gust speed)